SQ4MUI-13 Weather Reports


Display with metric or nautical units.
time (UTC)temp
F
wind
direction
speed
MPH
gust
MPH
rain 1hr
in
rain 24hr
in
rain mn
in
humidity
%
barometer
mb
20260506185614 0 0.0 0.0 0.00 0.00 0.00 64 1006.7
20260506184611 0 0.0 0.0 0.00 0.00 0.00 61 1006.6
20260506183607 0 0.0 0.0 0.00 0.00 0.00 58 1006.4
20260506182604 0 0.0 0.0 0.00 0.00 0.00 56 1006.2
20260506181600 0 0.0 0.0 0.00 0.00 0.00 53 1006.1
20260506180558 0 0.0 0.0 0.00 0.00 0.00 51 1006.0
20260506175555 0 0.0 0.0 0.00 0.00 0.00 49 1006.0
20260506174552 0 0.0 0.0 0.00 0.00 0.00 48 1005.9
20260506173549 0 0.0 0.0 0.00 0.00 0.00 47 1005.9
20260506172545 0 0.0 0.0 0.00 0.00 0.00 46 1005.8
20260506171542 0 0.0 0.0 0.00 0.00 0.00 44 1005.6
20260506170539 0 0.0 0.0 0.00 0.00 0.00 42 1005.5
20260506165535 0 0.0 0.0 0.00 0.00 0.00 40 1005.4
20260506164532 0 0.0 0.0 0.00 0.00 0.00 37 1005.4
20260506163529 0 0.0 0.0 0.00 0.00 0.00 32 1005.3
20260506162526 0 0.0 0.0 0.00 0.00 0.00 34 1005.3
20260506161523 0 0.0 0.0 0.00 0.00 0.00 35 1005.2
20260506160520 0 0.0 0.0 0.00 0.00 0.00 36 1005.2
20260506155517 0 0.0 0.0 0.00 0.00 0.00 33 1005.2
20260506154514 0 0.0 0.0 0.00 0.00 0.00 33 1005.3
20260506153511 0 0.0 0.0 0.00 0.00 0.00 32 1005.2
20260506152508 0 0.0 0.0 0.00 0.00 0.00 35 1005.1
20260506151505 0 0.0 0.0 0.00 0.00 0.00 35 1005.1
20260506150502 0 0.0 0.0 0.00 0.00 0.00 34 1005.0
20260506145457 0 0.0 0.0 0.00 0.00 0.00 33 1005.1
20260506144454 0 0.0 0.0 0.00 0.00 0.00 32 1005.1
20260506143451 0 0.0 0.0 0.00 0.00 0.00 30 1005.1
20260506142447 0 0.0 0.0 0.00 0.00 0.00 29 1005.1
20260506141444 0 0.0 0.0 0.00 0.00 0.00 29 1004.8
20260506140441 0 0.0 0.0 0.00 0.00 0.00 31 1004.9
20260506135438 0 0.0 0.0 0.00 0.00 0.00 31 1004.9
20260506134435 0 0.0 0.0 0.00 0.00 0.00 30 1004.9
20260506133432 0 0.0 0.0 0.00 0.00 0.00 29 1005.1
20260506132429 0 0.0 0.0 0.00 0.00 0.00 30 1005.0
20260506131426 0 0.0 0.0 0.00 0.00 0.00 29 1005.3
20260506130423 0 0.0 0.0 0.00 0.00 0.00 28 1005.2
20260506125420 0 0.0 0.0 0.00 0.00 0.00 30 1005.2
20260506124417 0 0.0 0.0 0.00 0.00 0.00 30 1004.9
20260506123414 0 0.0 0.0 0.00 0.00 0.00 30 1005.0
20260506122411 0 0.0 0.0 0.00 0.00 0.00 30 1005.0
20260506121408 0 0.0 0.0 0.00 0.00 0.00 31 1005.3
20260506120405 0 0.0 0.0 0.00 0.00 0.00 31 1005.3
20260506115402 0 0.0 0.0 0.00 0.00 0.00 31 1005.5
20260506114359 0 0.0 0.0 0.00 0.00 0.00 31 1005.8
20260506113355 0 0.0 0.0 0.00 0.00 0.00 30 1005.9
20260506112352 0 0.0 0.0 0.00 0.00 0.00 29 1005.9
20260506111350 0 0.0 0.0 0.00 0.00 0.00 33 1005.9
20260506110346 0 0.0 0.0 0.00 0.00 0.00 32 1005.9
20260506105343 0 0.0 0.0 0.00 0.00 0.00 33 1006.0
20260506104340 0 0.0 0.0 0.00 0.00 0.00 36 1006.0
20260506103337 0 0.0 0.0 0.00 0.00 0.00 38 1006.1
20260506102334 0 0.0 0.0 0.00 0.00 0.00 38 1006.2
20260506101330 0 0.0 0.0 0.00 0.00 0.00 39 1006.4
20260506100327 0 0.0 0.0 0.00 0.00 0.00 40 1006.3
20260506095324 0 0.0 0.0 0.00 0.00 0.00 40 1006.4
20260506094321 0 0.0 0.0 0.00 0.00 0.00 42 1006.5
20260506093318 0 0.0 0.0 0.00 0.00 0.00 45 1006.5
20260506092315 0 0.0 0.0 0.00 0.00 0.00 47 1006.6
20260506091312 0 0.0 0.0 0.00 0.00 0.00 51 1006.8
20260506090308 0 0.0 0.0 0.00 0.00 0.00 61 1006.9
20260506085306 0 0.0 0.0 0.00 0.00 0.00 66 1007.0
20260506084302 0 0.0 0.0 0.00 0.00 0.00 74 1007.0
20260506083259 0 0.0 0.0 0.00 0.00 0.00 78 1006.9
20260506082256 0 0.0 0.0 0.00 0.00 0.00 80 1007.0
20260506081253 0 0.0 0.0 0.00 0.00 0.00 82 1007.2
20260506080250 0 0.0 0.0 0.00 0.00 0.00 84 1007.4
20260506073241 0 0.0 0.0 0.00 0.00 0.00 98 1007.5
20260506072238 0 0.0 0.0 0.00 0.00 0.00 10 1007.6
20260506071234 0 0.0 0.0 0.00 0.00 0.00 10 1007.5
20260506070231 0 0.0 0.0 0.00 0.00 0.00 10 1007.5
20260506061709 0 0.0 0.0 0.00 0.00 0.00 10 1007.7
20260506060706 0 0.0 0.0 0.00 0.00 0.00 10 1007.7
20260506050647 0 0.0 0.0 0.00 0.00 0.00 10 1007.9
20260506044641 0 0.0 0.0 0.00 0.00 0.00 10 1007.8
20260506043638 0 0.0 0.0 0.00 0.00 0.00 10 1007.8
20260506042635 0 0.0 0.0 0.00 0.00 0.00 10 1007.8
20260506041632 0 0.0 0.0 0.00 0.00 0.00 10 1007.6
20260506040629 0 0.0 0.0 0.00 0.00 0.00 10 1007.8
20260506035626 0 0.0 0.0 0.00 0.00 0.00 10 1007.6
20260506034623 0 0.0 0.0 0.00 0.00 0.00 10 1007.6
20260506033620 0 0.0 0.0 0.00 0.00 0.00 10 1007.5
20260506032617 0 0.0 0.0 0.00 0.00 0.00 10 1007.5
20260506031614 0 0.0 0.0 0.00 0.00 0.00 10 1007.5
20260506030611 0 0.0 0.0 0.00 0.00 0.00 10 1007.6
20260506025608 0 0.0 0.0 0.00 0.00 0.00 10 1007.5
20260506024605 0 0.0 0.0 0.00 0.00 0.00 10 1007.6
20260506023602 0 0.0 0.0 0.00 0.00 0.00 10 1007.6
20260506022557 0 0.0 0.0 0.00 0.00 0.00 10 1007.4
20260506021554 0 0.0 0.0 0.00 0.00 0.00 10 1007.4
20260506020551 0 0.0 0.0 0.00 0.00 0.00 10 1007.3
20260506015548 0 0.0 0.0 0.00 0.00 0.00 10 1007.3
20260506014545 0 0.0 0.0 0.00 0.00 0.00 10 1007.2
20260506013542 0 0.0 0.0 0.00 0.00 0.00 10 1007.2
20260506012539 0 0.0 0.0 0.00 0.00 0.00 10 1007.2
20260506011536 0 0.0 0.0 0.00 0.00 0.00 10 1007.2
20260506010533 0 0.0 0.0 0.00 0.00 0.00 10 1007.1
20260506005530 0 0.0 0.0 0.00 0.00 0.00 10 1007.1
20260506004527 0 0.0 0.0 0.00 0.00 0.00 10 1007.1
20260506003524 0 0.0 0.0 0.00 0.00 0.00 10 1007.1
20260506002521 0 0.0 0.0 0.00 0.00 0.00 10 1007.2
20260506001518 0 0.0 0.0 0.00 0.00 0.00 10 1007.1
20260506000515 0 0.0 0.0 0.00 0.00 0.00 10 1007.0
20260505235511 0 0.0 0.0 0.00 0.00 0.00 10 1007.2
20260505234508 0 0.0 0.0 0.00 0.00 0.00 10 1007.2
20260505233505 0 0.0 0.0 0.00 0.00 0.00 10 1007.3
20260505232502 0 0.0 0.0 0.00 0.00 0.00 10 1007.4
20260505231500 0 0.0 0.0 0.00 0.00 0.00 10 1007.4
20260505230458 0 0.0 0.0 0.00 0.00 0.00 10 1007.5
20260505225455 0 0.0 0.0 0.00 0.00 0.00 10 1007.5
20260505224452 0 0.0 0.0 0.00 0.00 0.00 10 1007.4
20260505223449 0 0.0 0.0 0.00 0.00 0.00 10 1007.4
20260505222446 0 0.0 0.0 0.00 0.00 0.00 10 1007.5
20260505221442 0 0.0 0.0 0.00 0.00 0.00 10 1007.5
20260505220439 0 0.0 0.0 0.00 0.00 0.00 10 1007.5
20260505215436 0 0.0 0.0 0.00 0.00 0.00 10 1007.5
20260505214433 0 0.0 0.0 0.00 0.00 0.00 10 1007.5
20260505213430 0 0.0 0.0 0.00 0.00 0.00 10 1007.6
20260505212427 0 0.0 0.0 0.00 0.00 0.00 10 1007.6
20260505211424 0 0.0 0.0 0.00 0.00 0.00 10 1007.6
20260505210421 0 0.0 0.0 0.00 0.00 0.00 10 1007.3
20260505205418 0 0.0 0.0 0.00 0.00 0.00 10 1007.3
20260505204415 0 0.0 0.0 0.00 0.00 0.00 10 1007.3
20260505203411 0 0.0 0.0 0.00 0.00 0.00 10 1007.4
20260505202408 0 0.0 0.0 0.00 0.00 0.00 10 1007.4
20260505201405 0 0.0 0.0 0.00 0.00 0.00 10 1007.3
20260505200402 0 0.0 0.0 0.00 0.00 0.00 10 1007.3
20260505195400 0 0.0 0.0 0.00 0.00 0.00 10 1007.4
20260505194358 0 0.0 0.0 0.00 0.00 0.00 10 1007.4
20260505193355 0 0.0 0.0 0.00 0.00 0.00 10 1007.4
20260505192352 0 0.0 0.0 0.00 0.00 0.00 10 1007.4
20260505191349 0 0.0 0.0 0.00 0.00 0.00 10 1007.4
20260505190346 0 0.0 0.0 0.00 0.00 0.00 10 1007.4